[TLELIST] Archives

 

[TLELIST] Current TLEs

April 12th 2023 PDT

HST 1 20580U 90037B 23101.95911569 .00005279 00000-0 28355-3 0 9995 2 20580 28.4707 348.5008 0002797 25.0833 343.4478 15.12680117611428 ISS (ZARYA) 1 25544U 98067A 23102.37720667 .00013998 00000-0 25521-3 0 9994 2 25544 51.6394 294.6563 0006461 183.5725 252.3932 15.49716390391580 CXO 1 25867U 99040B 23101.85492465 .00001109 00000-0 00000-0 0 9991 2 25867 38.3187 205.2734 9032790 255.5475 0.3043 0.37814219 12936 ...Continue Reading

[TLELIST] Current TLEs

April 11th 2023 PDT

HST 1 20580U 90037B 23101.12174791 .00005375 00000-0 28897-3 0 9990 2 20580 28.4707 354.0670 0002774 16.4861 102.9828 15.12671453611559 ISS (ZARYA) 1 25544U 98067A 23100.89387752 .00013037 00000-0 23865-3 0 9996 2 25544 51.6390 302.0001 0006416 178.7555 256.3878 15.49670139391352 CXO 1 25867U 99040B 23101.85492465 .00001109 00000-0 00000-0 0 9991 2 25867 38.3187 205.2734 9032790 255.5475 0.3043 0.37814219 12936 ...Continue Reading

[TLELIST] Current TLEs

April 10th 2023 PDT

HST 1 20580U 90037B 23099.14130491 .00005262 00000-0 28284-3 0 9992 2 20580 28.4709 7.2313 0002722 355.8066 117.5635 15.12650659610992 ISS (ZARYA) 1 25544U 98067A 23100.44398579 .00013197 00000-0 24158-3 0 9999 2 25544 51.6391 304.2285 0006396 177.0260 266.6087 15.49658709391280 CXO 1 25867U 99040B 23101.85492465 .00001109 00000-0 00000-0 0 9991 2 25867 38.3187 205.2734 9032790 255.5475 0.3043 0.37814219 12936 ...Continue Reading

[TLELIST] Current TLEs

April 9th 2023 PDT

HST 1 20580U 90037B 23099.14130491 .00005262 00000-0 28284-3 0 9992 2 20580 28.4709 7.2313 0002722 355.8066 117.5635 15.12650659611252 ISS (ZARYA) 1 25544U 98067A 23099.36372169 .00014677 00000-0 26795-3 0 9997 2 25544 51.6394 309.5793 0006449 172.3562 0.8196 15.49634498391117 CXO 1 25867U 99040B 23099.20923661 .00001116 00000-0 00000-0 0 9991 2 25867 38.3574 205.5562 9032237 255.3345 0.0365 0.37814190 12929 ...Continue Reading

[TLELIST] Current TLEs

April 8th 2023 PDT

HST 1 20580U 90037B 23097.87666572 .00005451 00000-0 29347-3 0 9995 2 20580 28.4708 15.6365 0002652 342.2565 70.8088 15.12637571611067 ISS (ZARYA) 1 25544U 98067A 23098.36644676 .00015955 00000-0 29076-3 0 9996 2 25544 51.6405 314.5162 0006500 168.0373 198.0529 15.49610007390968 CXO 1 25867U 99040B 23099.20923661 .00001116 00000-0 00000-0 0 9991 2 25867 38.3574 205.5562 9032237 255.3345 0.0365 0.37814190 12929 ...Continue Reading

[TLELIST] Current TLEs

April 8th 2023 PDT

HST 1 20580U 90037B 23097.87666572 .00005451 00000-0 29347-3 0 9995 2 20580 28.4708 15.6365 0002652 342.2565 70.8088 15.12637571611067 ISS (ZARYA) 1 25544U 98067A 23098.36644676 .00015955 00000-0 29076-3 0 9996 2 25544 51.6405 314.5162 0006500 168.0373 198.0529 15.49610007390968 CXO 1 25867U 99040B 23099.20923661 .00001116 00000-0 00000-0 0 9991 2 25867 38.3574 205.5562 9032237 255.3345 0.0365 0.37814190 12929 ...Continue Reading

[TLELIST] Current TLEs

April 7th 2023 PDT

HST 1 20580U 90037B 23096.88691737 .00005330 00000-0 28684-3 0 9995 2 20580 28.4708 22.2155 0002618 331.2719 81.4274 15.12626003610656 ISS (ZARYA) 1 25544U 98067A 23097.32991898 .00020350 00000-0 36881-3 0 9999 2 25544 51.6397 319.6514 0006117 164.7289 175.2373 15.49582344390795 CXO 1 25867U 99040B 23096.56659145 .00001147 00000-0 00000+0 0 9993 2 25867 38.4002 205.8553 9033590 255.1087 0.2070 0.37818440 24068 ...Continue Reading

[TLELIST] Current TLEs

April 6th 2023 PDT

HST 1 20580U 90037B 23096.24045413 .00005512 00000-0 29702-3 0 9993 2 20580 28.4707 26.5127 0002582 323.7444 161.6787 15.12618980610815 ISS (ZARYA) 1 25544U 98067A 23096.39622788 .00014820 00000-0 27133-3 0 9999 2 25544 51.6424 324.2730 0006588 158.8749 9.1209 15.49542628390654 CXO 1 25867U 99040B 23096.56659145 .00001147 00000-0 00000+0 0 9993 2 25867 38.4002 205.8553 9033590 255.1087 0.2070 0.37818440 24068 ...Continue Reading

[TLELIST] Current TLEs

April 5th 2023 PDT

HST 1 20580U 90037B 23094.25958622 .00006216 00000-0 33650-3 0 9996 2 20580 28.4704 39.6800 0002479 300.3116 177.0720 15.12597832610255 ISS (ZARYA) 1 25544U 98067A 23095.39437500 .00019469 00000-0 35393-3 0 9995 2 25544 51.6430 329.2301 0006781 156.6544 179.0377 15.49522907390497 CXO 1 25867U 99040B 23096.56659145 .00001147 00000-0 00000+0 0 9993 2 25867 38.4002 205.8553 9033590 255.1087 0.2070 0.37818440 24068 ...Continue Reading

[TLELIST] Current TLEs

April 4th 2023 PDT

HST 1 20580U 90037B 23094.25958622 .00006216 00000-0 33650-3 0 9996 2 20580 28.4704 39.6800 0002479 300.3116 177.0720 15.12597832610514 ISS (ZARYA) 1 25544U 98067A 23094.26313126 .00022095 00000-0 40092-3 0 9998 2 25544 51.6427 334.8287 0006969 152.2732 348.9727 15.49487983390329 CXO 1 25867U 99040B 23096.56659145 .00001147 00000-0 00000+0 0 9993 2 25867 38.4002 205.8553 9033590 255.1087 0.2070 0.37818440 24068 ...Continue Reading
  • This mailing list is a public mailing list - anyone may join or leave, at any time.
  • This mailing list is announce-only.

International Space Station (ISS) / Hubble Space Telescope (HST) / Chandra X-Ray Observatory Orbital Data via EMAIL

Privacy Policy:

Private list